Location: French Creek State Gamelands
(40.1750°N, 75.7969°W)
Time: 13:21:48
(UTC-04:00)

ISS - All Passes

Search period start: 29 March 2015 00:00
Search period end: 08 April 2015 00:00
Orbit: 396 x 406 km, 51.6° (Epoch: 29 March)

Date Brightness Start Highest point End Pass type
(mag) Time Alt. Az. Time Alt. Az. Time Alt. Az.
29 Mar - 01:37:44 10° NW 01:39:41 15° NNW 01:41:35 10° NNE night (unlit)
29 Mar - 03:15:59 10° NNW 03:17:09 11° N 03:18:20 10° NNE visible
29 Mar - 04:51:40 10° NNW 04:54:25 25° NNE 04:57:11 10° E visible
29 Mar - 06:27:51 10° WNW 06:30:56 42° SW 06:33:59 10° SSE daylight
29 Mar - 23:06:04 10° SW 23:09:18 76° SE 23:12:34 10° NE night (unlit)
30 Mar - 00:43:34 10° WNW 00:46:02 19° NNW 00:48:28 10° NNE night (unlit)
30 Mar - 02:22:24 10° NNW 02:23:24 11° N 02:24:24 10° NNE night (unlit)
30 Mar - 03:58:31 10° NNW 04:00:49 18° NNE 04:03:08 10° ENE visible
30 Mar - 05:34:21 10° NW 05:37:36 89° SW 05:40:49 10° SE visible
30 Mar - 22:12:57 10° SSW 22:15:58 36° SE 22:19:00 10° ENE night (unlit)
30 Mar - 23:49:31 10° W 23:52:25 28° NNW 23:55:17 10° NE night (unlit)
31 Mar - 01:28:21 10° NNW 01:29:39 12° N 01:30:56 10° NNE night (unlit)
31 Mar - 03:05:21 10° NNW 03:07:07 14° NNE 03:08:55 10° NE night (unlit)
31 Mar - 04:41:00 10° NW 04:44:09 46° NNE 04:47:17 10° ESE visible
31 Mar - 06:18:02 10° W 06:20:20 18° SW 06:22:35 10° S visible
31 Mar - 21:20:23 10° S 21:22:40 18° SE 21:25:01 10° E night (unlit)
31 Mar - 22:55:41 10° WSW 22:58:51 47° NNW 23:02:01 10° NE night (unlit)
01 Apr - 00:34:03 10° NW 00:35:53 14° NNW 00:37:41 10° NNE night (unlit)
01 Apr - 02:12:05 10° NNW 02:13:21 12° N 02:14:38 10° NNE night (unlit)
01 Apr - 03:47:44 10° NW 03:50:35 28° NNE 03:53:26 10° E visible
01 Apr - 05:24:02 10° WNW 05:27:02 36° SW 05:30:01 10° SSE visible
01 Apr - 22:02:06 10° SW 22:05:21 89° SSE 22:08:38 10° NE night (unlit)
01 Apr - 23:39:47 10° WNW 23:42:08 18° NNW 23:44:28 10° NNE night (unlit)
02 Apr - 01:18:32 10° NNW 01:19:32 11° N 01:20:33 10° NNE night (unlit)
02 Apr - 02:54:30 10° NNW 02:56:55 19° NNE 02:59:21 10° ENE night (unlit)
02 Apr - 04:30:24 10° NW 04:33:38 77° SW 04:36:51 10° SE visible
02 Apr - 21:08:49 10° SSW 21:11:55 42° SE 21:15:02 10° ENE visible
02 Apr - 22:45:37 10° W 22:48:25 25° NNW 22:51:13 10° NNE night (unlit)
03 Apr - 00:24:28 10° NNW 00:25:41 12° N 00:26:54 10° NNE night (unlit)
03 Apr - 02:01:15 10° NNW 02:03:09 15° NNE 02:05:05 10° NE night (unlit)
03 Apr - 03:36:56 10° NW 03:40:08 53° NE 03:43:18 10° ESE night (unlit)
03 Apr - 05:14:11 10° W 05:16:15 15° SW 05:18:13 10° S visible
03 Apr - 20:16:01 10° S 20:18:32 21° SE 20:21:05 10° E visible
03 Apr - 21:51:39 10° WSW 21:54:45 41° NNW 21:57:53 10° NE visible
03 Apr - 23:30:07 10° NW 23:31:50 13° NNW 23:33:31 10° NNE night (unlit)
04 Apr - 01:07:55 10° NNW 01:09:18 12° N 01:10:43 10° NE night (unlit)
04 Apr - 02:43:34 10° NW 02:46:30 30° NNE 02:49:26 10° E night (unlit)
04 Apr - 04:19:58 10° WNW 04:22:53 30° SW 04:25:45 10° SSE night (unlit)
04 Apr - 19:24:33 10° SE 19:25:10 10° SE 19:25:56 10° ESE daylight
04 Apr - 20:57:55 10° SW 21:01:10 79° NW 21:04:26 10° NE visible
04 Apr - 22:35:44 10° WNW 22:38:00 17° NNW 22:40:13 10° NNE visible
05 Apr - 00:14:22 10° NNW 00:15:24 11° N 00:16:27 10° NNE night (unlit)
05 Apr - 01:50:14 10° NNW 01:52:46 20° NNE 01:55:17 10° ENE night (unlit)
05 Apr - 03:26:12 10° WNW 03:29:25 65° SW 03:32:36 10° SE night (unlit)
05 Apr - 20:04:28 10° SW 20:07:38 49° SE 20:10:48 10° ENE visible
05 Apr - 21:41:28 10° W 21:44:11 23° NNW 21:46:53 10° NNE visible
05 Apr - 23:20:20 10° NNW 23:21:28 11° N 23:22:37 10° NNE visible
06 Apr - 00:56:54 10° NNW 00:58:55 15° NNE 01:00:58 10° NE night (unlit)
06 Apr - 02:32:37 10° NW 02:35:51 61° NE 02:39:03 10° ESE night (unlit)
06 Apr - 04:10:12 10° W 04:11:55 13° SW 04:13:31 10° SSW night (unlit)
06 Apr - 19:11:27 10° S 19:14:08 24° SE 19:16:52 10° ENE daylight
06 Apr - 20:47:21 10° W 20:50:25 37° NNW 20:53:30 10° NE visible
06 Apr - 22:25:56 10° NW 22:27:32 13° N 22:29:07 10° NNE visible
07 Apr - 00:03:31 10° NNW 00:05:01 13° N 00:06:31 10° NE night (unlit)
07 Apr - 01:39:09 10° NW 01:42:09 34° NNE 01:45:09 10° E night (unlit)
07 Apr - 03:15:40 10° WNW 03:18:28 26° SW 03:21:13 10° SSE night (unlit)
07 Apr - 18:19:21 10° SSE 18:20:41 12° SE 18:22:09 10° ESE daylight
07 Apr - 19:53:28 10° WSW 19:56:44 69° NW 19:59:59 10° NE visible
07 Apr - 21:31:27 10° WNW 21:33:36 16° NNW 21:35:43 10° NNE visible
07 Apr - 23:09:56 10° NNW 23:11:02 11° N 23:12:08 10° NNE visible
